| time (UTC) | temp F | wind direction | speed knots | gust knots | rain 1hr in | rain 24hr in | rain mn in | humidity % | barometer mb |
| 20260503051455 | 47 | 184 | 5.2 | 7.0 | 0.00 | 0.00 | 0.00 | 79 | 1010.5 |
| 20260503050956 | 46 | 178 | 5.2 | 6.1 | 0.00 | 0.00 | 0.00 | 78 | 1010.5 |
| 20260503050455 | 46 | 184 | 3.5 | 4.3 | 0.00 | 0.00 | 0.00 | 76 | 1010.5 |
| 20260503045955 | 46 | 217 | 3.5 | 5.2 | 0.00 | 0.00 | 0.00 | 75 | 1010.8 |
| 20260503045456 | 46 | 204 | 3.5 | 4.3 | 0.00 | 0.00 | 0.00 | 77 | 1010.8 |
| 20260503044955 | 46 | 167 | 3.5 | 5.2 | 0.00 | 0.00 | 0.00 | 79 | 1010.8 |
| 20260503044456 | 46 | 189 | 4.3 | 5.2 | 0.00 | 0.00 | 0.00 | 80 | 1010.8 |
| 20260503043955 | 46 | 181 | 3.5 | 5.2 | 0.00 | 0.00 | 0.00 | 79 | 1010.8 |
| 20260503043455 | 47 | 186 | 4.3 | 5.2 | 0.00 | 0.00 | 0.00 | 80 | 1011.2 |
| 20260503042955 | 47 | 187 | 5.2 | 7.0 | 0.00 | 0.00 | 0.00 | 74 | 1011.2 |
| 20260503042455 | 47 | 177 | 4.3 | 6.1 | 0.00 | 0.00 | 0.00 | 77 | 1011.2 |
| 20260503041955 | 48 | 188 | 4.3 | 7.0 | 0.00 | 0.00 | 0.00 | 73 | 1011.2 |
| 20260503041455 | 48 | 169 | 4.3 | 7.0 | 0.00 | 0.00 | 0.00 | 75 | 1011.2 |
| 20260503040955 | 48 | 187 | 5.2 | 6.1 | 0.00 | 0.00 | 0.00 | 73 | 1011.2 |
| 20260503040455 | 47 | 194 | 4.3 | 6.1 | 0.00 | 0.00 | 0.00 | 73 | 1011.2 |
| 20260503035955 | 47 | 187 | 6.1 | 6.1 | 0.00 | 0.00 | 0.00 | 73 | 1011.2 |
| 20260503035455 | 47 | 189 | 5.2 | 6.1 | 0.00 | 0.00 | 0.00 | 74 | 1011.2 |
| 20260503034955 | 46 | 166 | 5.2 | 6.1 | 0.00 | 0.00 | 0.00 | 75 | 1011.5 |
| 20260503034456 | 46 | 176 | 5.2 | 6.1 | 0.00 | 0.00 | 0.00 | 77 | 1011.5 |
| 20260503033955 | 46 | 187 | 5.2 | 6.1 | 0.00 | 0.00 | 0.00 | 81 | 1011.5 |
| 20260503033455 | 47 | 173 | 5.2 | 6.1 | 0.00 | 0.00 | 0.00 | 81 | 1011.5 |
| 20260503032956 | 47 | 175 | 5.2 | 6.1 | 0.00 | 0.00 | 0.00 | 81 | 1011.5 |
| 20260503032455 | 46 | 189 | 5.2 | 6.1 | 0.00 | 0.00 | 0.00 | 81 | 1011.9 |
| 20260503031956 | 47 | 174 | 2.6 | 4.3 | 0.00 | 0.00 | 0.00 | 80 | 1011.9 |
| 20260503031455 | 47 | 174 | 3.5 | 6.1 | 0.00 | 0.00 | 0.00 | 78 | 1011.9 |
| 20260503030955 | 47 | 188 | 5.2 | 6.1 | 0.00 | 0.00 | 0.00 | 75 | 1011.9 |
| 20260503030455 | 47 | 189 | 3.5 | 6.1 | 0.00 | 0.00 | 0.00 | 78 | 1011.9 |
| 20260503025955 | 48 | 176 | 5.2 | 6.1 | 0.00 | 0.00 | 0.00 | 79 | 1012.2 |
| 20260503025455 | 48 | 175 | 5.2 | 5.2 | 0.00 | 0.00 | 0.00 | 77 | 1012.2 |
| 20260503024956 | 48 | 172 | 5.2 | 5.2 | 0.00 | 0.00 | 0.00 | 78 | 1012.2 |
| 20260503024455 | 48 | 174 | 5.2 | 5.2 | 0.00 | 0.00 | 0.00 | 77 | 1012.2 |
| 20260503023955 | 48 | 170 | 3.5 | 4.3 | 0.00 | 0.00 | 0.00 | 80 | 1012.2 |
| 20260503023455 | 48 | 177 | 4.3 | 5.2 | 0.00 | 0.00 | 0.00 | 80 | 1012.2 |
| 20260503022955 | 49 | 182 | 3.5 | 5.2 | 0.00 | 0.00 | 0.00 | 80 | 1012.2 |
| 20260503022455 | 49 | 201 | 4.3 | 5.2 | 0.00 | 0.00 | 0.00 | 77 | 1012.2 |
| 20260503021955 | 49 | 183 | 4.3 | 5.2 | 0.00 | 0.00 | 0.00 | 78 | 1012.2 |
| 20260503021455 | 48 | 186 | 3.5 | 4.3 | 0.00 | 0.00 | 0.00 | 76 | 1012.2 |
| 20260503020955 | 49 | 211 | 3.5 | 3.5 | 0.00 | 0.00 | 0.00 | 79 | 1012.2 |
| 20260503020455 | 49 | 182 | 2.6 | 4.3 | 0.00 | 0.00 | 0.00 | 79 | 1012.5 |
| 20260503015955 | 49 | 180 | 3.5 | 4.3 | 0.00 | 0.00 | 0.00 | 75 | 1012.5 |
| 20260503015455 | 50 | 193 | 3.5 | 5.2 | 0.00 | 0.00 | 0.00 | 77 | 1012.5 |
| 20260503014955 | 50 | 187 | 4.3 | 5.2 | 0.00 | 0.00 | 0.00 | 74 | 1012.5 |
| 20260503014455 | 50 | 185 | 3.5 | 4.3 | 0.00 | 0.00 | 0.00 | 76 | 1012.5 |
| 20260503013956 | 49 | 178 | 3.5 | 4.3 | 0.00 | 0.00 | 0.00 | 76 | 1012.2 |
| 20260503013455 | 48 | 198 | 4.3 | 5.2 | 0.00 | 0.00 | 0.00 | 75 | 1012.5 |
| 20260503012955 | 49 | 162 | 2.6 | 2.6 | 0.00 | 0.00 | 0.00 | 79 | 1012.5 |
| 20260503012455 | 49 | 173 | 2.6 | 3.5 | 0.00 | 0.00 | 0.00 | 76 | 1012.5 |
| 20260503011956 | 50 | 171 | 3.5 | 5.2 | 0.00 | 0.00 | 0.00 | 74 | 1012.5 |
| 20260503011456 | 50 | 177 | 4.3 | 6.1 | 0.00 | 0.00 | 0.00 | 70 | 1012.5 |
| 20260503010955 | 50 | 181 | 5.2 | 6.1 | 0.00 | 0.00 | 0.00 | 66 | 1012.5 |
| 20260503010456 | 51 | 210 | 4.3 | 6.1 | 0.00 | 0.00 | 0.00 | 67 | 1012.5 |
| 20260503005955 | 51 | 209 | 5.2 | 7.0 | 0.00 | 0.00 | 0.00 | 68 | 1012.5 |
| 20260503005455 | 51 | 226 | 5.2 | 7.0 | 0.00 | 0.00 | 0.00 | 64 | 1012.5 |
| 20260503004956 | 52 | 231 | 6.1 | 7.0 | 0.00 | 0.00 | 0.00 | 64 | 1012.9 |
| 20260503004455 | 52 | 224 | 6.1 | 7.0 | 0.00 | 0.00 | 0.00 | 64 | 1012.9 |
| 20260503003956 | 52 | 235 | 7.0 | 7.8 | 0.00 | 0.00 | 0.00 | 62 | 1012.9 |
| 20260503003456 | 53 | 228 | 7.0 | 7.8 | 0.00 | 0.00 | 0.00 | 61 | 1012.9 |
| 20260503002955 | 53 | 235 | 7.8 | 8.7 | 0.00 | 0.00 | 0.00 | 59 | 1012.9 |
| 20260503002455 | 53 | 214 | 7.8 | 8.7 | 0.00 | 0.00 | 0.00 | 59 | 1012.9 |
| 20260503001955 | 54 | 226 | 7.0 | 9.6 | 0.00 | 0.00 | 0.00 | 57 | 1012.9 |
| 20260503001456 | 54 | 232 | 8.7 | 12.2 | 0.00 | 0.00 | 0.00 | 57 | 1012.9 |
| 20260503000955 | 55 | 241 | 11.3 | 13.0 | 0.00 | 0.00 | 0.00 | 55 | 1012.9 |
| 20260503000455 | 56 | 241 | 8.7 | 12.2 | 0.00 | 0.00 | 0.00 | 58 | 1013.2 |
| 20260502235955 | 56 | 238 | 9.6 | 11.3 | 0.00 | 0.00 | 0.00 | 50 | 1013.2 |
| 20260502235455 | 56 | 229 | 9.6 | 12.2 | 0.00 | 0.00 | 0.00 | 50 | 1013.2 |
| 20260502234958 | 56 | 241 | 9.6 | 13.9 | 0.00 | 0.00 | 0.00 | 55 | 1013.2 |
| 20260502234455 | 56 | 219 | 9.6 | 13.0 | 0.00 | 0.00 | 0.00 | 54 | 1013.2 |
| 20260502233956 | 56 | 232 | 8.7 | 13.9 | 0.00 | 0.00 | 0.00 | 53 | 1013.2 |
| 20260502233455 | 56 | 248 | 8.7 | 13.9 | 0.00 | 0.00 | 0.00 | 55 | 1013.2 |
| 20260502232956 | 56 | 245 | 9.6 | 13.0 | 0.00 | 0.00 | 0.00 | 54 | 1013.2 |
| 20260502232456 | 55 | 249 | 9.6 | 13.0 | 0.00 | 0.00 | 0.00 | 53 | 1013.2 |
| 20260502231955 | 56 | 235 | 10.4 | 13.9 | 0.00 | 0.00 | 0.00 | 52 | 1013.2 |
| 20260502231455 | 56 | 218 | 9.6 | 15.6 | 0.00 | 0.00 | 0.00 | 53 | 1013.2 |
| 20260502230955 | 56 | 236 | 13.0 | 15.6 | 0.00 | 0.00 | 0.00 | 51 | 1013.2 |
| 20260502230455 | 57 | 255 | 9.6 | 15.6 | 0.00 | 0.00 | 0.00 | 54 | 1013.2 |
| 20260502225955 | 57 | 246 | 7.0 | 12.2 | 0.00 | 0.00 | 0.00 | 52 | 1013.2 |
| 20260502225456 | 57 | 252 | 9.6 | 15.6 | 0.00 | 0.00 | 0.00 | 52 | 1013.2 |
| 20260502224955 | 58 | 243 | 11.3 | 15.6 | 0.00 | 0.00 | 0.00 | 47 | 1013.2 |
| 20260502224455 | 58 | 232 | 11.3 | 13.9 | 0.00 | 0.00 | 0.00 | 47 | 1013.2 |
| 20260502223956 | 57 | 250 | 9.6 | 13.9 | 0.00 | 0.00 | 0.00 | 49 | 1013.2 |
| 20260502223455 | 57 | 213 | 13.9 | 14.8 | 0.00 | 0.00 | 0.00 | 49 | 1013.2 |
| 20260502222955 | 58 | 233 | 13.0 | 15.6 | 0.00 | 0.00 | 0.00 | 46 | 1013.2 |
| 20260502222455 | 58 | 233 | 10.4 | 17.4 | 0.00 | 0.00 | 0.00 | 49 | 1013.2 |
| 20260502221955 | 58 | 229 | 9.6 | 14.8 | 0.00 | 0.00 | 0.00 | 50 | 1013.2 |
| 20260502221455 | 58 | 236 | 8.7 | 13.9 | 0.00 | 0.00 | 0.00 | 51 | 1013.2 |
| 20260502220956 | 58 | 275 | 9.6 | 13.0 | 0.00 | 0.00 | 0.00 | 50 | 1013.2 |
| 20260502220456 | 57 | 219 | 10.4 | 15.6 | 0.00 | 0.00 | 0.00 | 44 | 1013.2 |
| 20260502215955 | 58 | 215 | 12.2 | 14.8 | 0.00 | 0.00 | 0.00 | 47 | 1013.5 |
| 20260502215455 | 58 | 225 | 10.4 | 15.6 | 0.00 | 0.00 | 0.00 | 46 | 1013.5 |
| 20260502214956 | 58 | 225 | 13.9 | 15.6 | 0.00 | 0.00 | 0.00 | 50 | 1013.5 |
| 20260502214455 | 58 | 246 | 10.4 | 15.6 | 0.00 | 0.00 | 0.00 | 46 | 1013.5 |
| 20260502213956 | 58 | 218 | 12.2 | 15.6 | 0.00 | 0.00 | 0.00 | 46 | 1013.5 |
| 20260502212956 | 58 | 222 | 13.9 | 15.6 | 0.00 | 0.00 | 0.00 | 47 | 1013.5 |
| 20260502212456 | 58 | 251 | 13.9 | 15.6 | 0.00 | 0.00 | 0.00 | 47 | 1013.9 |
| 20260502211955 | 59 | 239 | 9.6 | 11.3 | 0.00 | 0.00 | 0.00 | 48 | 1013.9 |
| 20260502211455 | 59 | 236 | 7.8 | 9.6 | 0.00 | 0.00 | 0.00 | 42 | 1013.5 |
| 20260502210955 | 58 | 261 | 7.8 | 13.0 | 0.00 | 0.00 | 0.00 | 48 | 1013.9 |
| 20260502210455 | 58 | 240 | 9.6 | 15.6 | 0.00 | 0.00 | 0.00 | 44 | 1013.9 |
| 20260502205956 | 58 | 252 | 13.9 | 15.6 | 0.00 | 0.00 | 0.00 | 45 | 1013.9 |
| 20260502205456 | 58 | 241 | 11.3 | 15.6 | 0.00 | 0.00 | 0.00 | 47 | 1013.9 |
| 20260502204956 | 58 | 252 | 12.2 | 15.6 | 0.00 | 0.00 | 0.00 | 44 | 1014.2 |
| 20260502204455 | 57 | 262 | 11.3 | 14.8 | 0.00 | 0.00 | 0.00 | 44 | 1014.2 |
| 20260502203955 | 59 | 244 | 11.3 | 17.4 | 0.00 | 0.00 | 0.00 | 47 | 1014.2 |
| 20260502203455 | 60 | 253 | 8.7 | 11.3 | 0.00 | 0.00 | 0.00 | 44 | 1014.2 |
| 20260502202955 | 58 | 254 | 9.6 | 17.4 | 0.00 | 0.00 | 0.00 | 45 | 1014.2 |
| 20260502202456 | 59 | 257 | 14.8 | 17.4 | 0.00 | 0.00 | 0.00 | 46 | 1014.6 |
| 20260502201955 | 58 | 251 | 10.4 | 13.0 | 0.00 | 0.00 | 0.00 | 47 | 1014.6 |
| 20260502201455 | 58 | 224 | 5.2 | 13.9 | 0.00 | 0.00 | 0.00 | 44 | 1014.6 |
| 20260502200955 | 58 | 229 | 11.3 | 14.8 | 0.00 | 0.00 | 0.00 | 44 | 1014.6 |
| 20260502200456 | 58 | 274 | 7.8 | 15.6 | 0.00 | 0.00 | 0.00 | 47 | 1014.9 |
| 20260502195955 | 58 | 276 | 13.0 | 15.6 | 0.00 | 0.00 | 0.00 | 45 | 1014.9 |
| 20260502195455 | 58 | 268 | 11.3 | 13.9 | 0.00 | 0.00 | 0.00 | 49 | 1014.9 |
| 20260502194955 | 58 | 227 | 7.8 | 9.6 | 0.00 | 0.00 | 0.00 | 47 | 1014.9 |
| 20260502194455 | 58 | 223 | 11.3 | 14.8 | 0.00 | 0.00 | 0.00 | 45 | 1015.2 |
| 20260502193955 | 58 | 236 | 13.0 | 15.6 | 0.00 | 0.00 | 0.00 | 48 | 1015.2 |
| 20260502193455 | 58 | 228 | 13.0 | 15.6 | 0.00 | 0.00 | 0.00 | 47 | 1015.2 |
| 20260502192956 | 58 | 240 | 9.6 | 14.8 | 0.00 | 0.00 | 0.00 | 44 | 1015.2 |
| 20260502192455 | 58 | 231 | 13.0 | 14.8 | 0.00 | 0.00 | 0.00 | 44 | 1015.2 |
| 20260502191955 | 58 | 246 | 7.0 | 12.2 | 0.00 | 0.00 | 0.00 | 45 | 1015.2 |
| 20260502191456 | 58 | 236 | 7.8 | 13.9 | 0.00 | 0.00 | 0.00 | 42 | 1015.6 |
| 20260502190955 | 57 | 265 | 9.6 | 12.2 | 0.00 | 0.00 | 0.00 | 44 | 1015.6 |
| 20260502190456 | 57 | 242 | 9.6 | 15.6 | 0.00 | 0.00 | 0.00 | 47 | 1015.6 |
| 20260502185955 | 57 | 230 | 9.6 | 15.6 | 0.00 | 0.00 | 0.00 | 43 | 1015.6 |
| 20260502185456 | 57 | 196 | 9.6 | 17.4 | 0.00 | 0.00 | 0.00 | 42 | 1015.6 |
| 20260502184955 | 58 | 260 | 9.6 | 16.5 | 0.00 | 0.00 | 0.00 | 51 | 1015.6 |
| 20260502184455 | 58 | 268 | 7.8 | 11.3 | 0.00 | 0.00 | 0.00 | 48 | 1015.6 |
| 20260502183955 | 57 | 273 | 8.7 | 14.8 | 0.00 | 0.00 | 0.00 | 49 | 1015.9 |
| 20260502183455 | 57 | 240 | 10.4 | 13.9 | 0.00 | 0.00 | 0.00 | 49 | 1015.9 |
| 20260502182955 | 57 | 245 | 7.8 | 13.9 | 0.00 | 0.00 | 0.00 | 50 | 1015.9 |
| 20260502182456 | 57 | 287 | 11.3 | 15.6 | 0.00 | 0.00 | 0.00 | 45 | 1015.9 |
| 20260502181955 | 57 | 246 | 7.8 | 15.6 | 0.00 | 0.00 | 0.00 | 43 | 1015.9 |
| 20260502181455 | 56 | 251 | 8.7 | 15.6 | 0.00 | 0.00 | 0.00 | 43 | 1016.3 |
| 20260502180956 | 56 | 265 | 11.3 | 15.6 | 0.00 | 0.00 | 0.00 | 46 | 1016.3 |
| 20260502180457 | 56 | 247 | 8.7 | 12.2 | 0.00 | 0.00 | 0.00 | 44 | 1016.3 |
| 20260502170455 | 53 | 303 | 8.7 | 13.9 | 0.00 | 0.00 | 0.00 | 47 | 1017.3 |
| 20260502163955 | 55 | 276 | 9.6 | 12.2 | 0.00 | 0.00 | 0.00 | 49 | 1017.3 |
| 20260502163455 | 54 | 264 | 9.6 | 13.9 | 0.00 | 0.00 | 0.00 | 45 | 1017.3 |
| 20260502162956 | 54 | 269 | 8.7 | 10.4 | 0.00 | 0.00 | 0.00 | 47 | 1017.3 |
| 20260502162455 | 54 | 224 | 7.0 | 9.6 | 0.00 | 0.00 | 0.00 | 45 | 1017.3 |
| 20260502161955 | 53 | 295 | 5.2 | 10.4 | 0.00 | 0.00 | 0.00 | 54 | 1017.3 |
| 20260502161455 | 53 | 227 | 7.8 | 10.4 | 0.00 | 0.00 | 0.00 | 52 | 1017.6 |
| 20260502160955 | 53 | 263 | 9.6 | 12.2 | 0.00 | 0.00 | 0.00 | 49 | 1017.6 |
| 20260502160455 | 53 | 190 | 3.5 | 9.6 | 0.00 | 0.00 | 0.00 | 58 | 1017.6 |
| 20260502151955 | 50 | 217 | 6.1 | 9.6 | 0.00 | 0.00 | 0.00 | 58 | 1017.9 |
| 20260502151455 | 50 | 239 | 5.2 | 7.8 | 0.00 | 0.00 | 0.00 | 55 | 1017.9 |
| 20260502150955 | 49 | 171 | 6.1 | 8.7 | 0.00 | 0.00 | 0.00 | 56 | 1017.9 |
| 20260502150455 | 49 | 207 | 7.8 | 9.6 | 0.00 | 0.00 | 0.00 | 58 | 1017.9 |
| 20260502130456 | 41 | 180 | 6.1 | 7.8 | 0.00 | 0.00 | 0.00 | 68 | 1019.0 |
| 20260502123456 | 38 | 165 | 4.3 | 5.2 | 0.00 | 0.00 | 0.00 | 72 | 1019.0 |
| 20260502122955 | 37 | 175 | 4.3 | 5.2 | 0.00 | 0.00 | 0.00 | 72 | 1019.0 |
| 20260502122455 | 37 | 171 | 4.3 | 5.2 | 0.00 | 0.00 | 0.00 | 74 | 1019.0 |
| 20260502121956 | 36 | 169 | 3.5 | 3.5 | 0.00 | 0.00 | 0.00 | 80 | 1019.0 |
| 20260502121455 | 35 | 163 | 2.6 | 3.5 | 0.00 | 0.00 | 0.00 | 81 | 1019.0 |
| 20260502120955 | 34 | 147 | 2.6 | 3.5 | 0.00 | 0.00 | 0.00 | 85 | 1019.0 |
| 20260502120455 | 33 | 180 | 3.5 | 3.5 | 0.00 | 0.00 | 0.00 | 87 | 1019.0 |
| 20260502115455 | 31 | 142 | 0.0 | 0.0 | 0.00 | 0.00 | 0.00 | 97 | 1019.0 |
| 20260502114955 | 31 | 134 | 0.0 | 0.0 | 0.00 | 0.00 | 0.00 | 97 | 1019.0 |
| 20260502114455 | 31 | 129 | 0.0 | 0.9 | 0.00 | 0.00 | 0.00 | 97 | 1019.0 |
| 20260502113957 | 30 | 129 | 0.0 | 0.0 | 0.00 | 0.00 | 0.00 | 96 | 1019.0 |
| 20260502113455 | 30 | 130 | 0.0 | 0.0 | 0.00 | 0.00 | 0.00 | 95 | 1019.0 |
| 20260502112955 | 30 | 140 | 0.0 | 0.0 | 0.00 | 0.00 | 0.00 | 94 | 1019.0 |
| 20260502112455 | 30 | 144 | 0.0 | 1.7 | 0.00 | 0.00 | 0.00 | 94 | 1019.0 |
| 20260502111955 | 30 | 146 | 1.7 | 2.6 | 0.00 | 0.00 | 0.00 | 95 | 1019.0 |
| 20260502111455 | 30 | 167 | 2.6 | 2.6 | 0.00 | 0.00 | 0.00 | 95 | 1019.0 |
| 20260502110955 | 30 | 163 | 2.6 | 2.6 | 0.00 | 0.00 | 0.00 | 96 | 1019.0 |
| 20260502110455 | 30 | 159 | 2.6 | 2.6 | 0.00 | 0.00 | 0.00 | 97 | 1019.0 |
| 20260502105955 | 30 | 166 | 1.7 | 2.6 | 0.00 | 0.00 | 0.00 | 97 | 1019.0 |
| 20260502105456 | 31 | 167 | 1.7 | 1.7 | 0.00 | 0.00 | 0.00 | 96 | 1019.0 |
| 20260502104955 | 31 | 194 | 1.7 | 1.7 | 0.00 | 0.00 | 0.00 | 96 | 1019.0 |
| 20260502104456 | 31 | 178 | 0.0 | 1.7 | 0.00 | 0.00 | 0.00 | 95 | 1019.0 |
| 20260502103955 | 31 | 135 | 0.0 | 1.7 | 0.00 | 0.00 | 0.00 | 95 | 1019.0 |
| 20260502103455 | 31 | 101 | 0.0 | 1.7 | 0.00 | 0.00 | 0.00 | 94 | 1019.0 |
| 20260502102957 | 31 | 80 | 1.7 | 1.7 | 0.00 | 0.00 | 0.00 | 94 | 1019.0 |
| 20260502102455 | 31 | 106 | 0.0 | 0.0 | 0.00 | 0.00 | 0.00 | 94 | 1019.0 |
| 20260502101955 | 32 | 121 | 0.0 | 2.6 | 0.00 | 0.00 | 0.00 | 94 | 1019.0 |
| 20260502101455 | 31 | 154 | 2.6 | 2.6 | 0.00 | 0.00 | 0.00 | 93 | 1019.0 |
| 20260502100956 | 31 | 164 | 2.6 | 2.6 | 0.00 | 0.00 | 0.00 | 95 | 1019.0 |
| 20260502100455 | 31 | 156 | 1.7 | 2.6 | 0.00 | 0.00 | 0.00 | 98 | 1019.0 |
| 20260502091458 | 29 | 119 | 0.0 | 0.0 | 0.00 | 0.00 | 0.00 | 95 | 1019.0 |
| 20260502090955 | 29 | 111 | 0.0 | 0.0 | 0.00 | 0.00 | 0.00 | 95 | 1019.3 |
| 20260502090455 | 29 | 111 | 0.0 | 0.0 | 0.00 | 0.00 | 0.00 | 96 | 1019.3 |
| 20260502071455 | 32 | 210 | 1.7 | 2.6 | 0.00 | 0.00 | 0.00 | 97 | 1019.3 |
| 20260502070955 | 32 | 191 | 1.7 | 1.7 | 0.00 | 0.00 | 0.00 | 95 | 1019.3 |
| 20260502070455 | 32 | 161 | 0.0 | 0.0 | 0.00 | 0.00 | 0.00 | 94 | 1019.3 |
| 20260502065955 | 32 | 148 | 0.0 | 0.0 | 0.00 | 0.00 | 0.00 | 94 | 1019.3 |
| 20260502065456 | 32 | 146 | 0.9 | 1.7 | 0.00 | 0.00 | 0.00 | 94 | 1019.3 |
| 20260502064955 | 32 | 197 | 0.9 | 1.7 | 0.00 | 0.00 | 0.00 | 93 | 1019.3 |
| 20260502064455 | 33 | 147 | 0.0 | 0.0 | 0.00 | 0.00 | 0.00 | 93 | 1019.3 |
| 20260502063955 | 33 | 147 | 0.0 | 0.0 | 0.00 | 0.00 | 0.00 | 94 | 1019.3 |
| 20260502063455 | 33 | 117 | 0.0 | 0.0 | 0.00 | 0.00 | 0.00 | 94 | 1019.6 |
| 20260502062955 | 33 | 116 | 0.0 | 0.0 | 0.00 | 0.00 | 0.00 | 93 | 1019.3 |
| 20260502062455 | 33 | 119 | 0.0 | 0.0 | 0.00 | 0.00 | 0.00 | 93 | 1019.6 |
| 20260502061956 | 33 | 152 | 0.0 | 0.0 | 0.00 | 0.00 | 0.00 | 94 | 1019.6 |
| 20260502061455 | 33 | 173 | 0.0 | 0.9 | 0.00 | 0.00 | 0.00 | 94 | 1019.6 |
| 20260502060955 | 33 | 165 | 0.9 | 2.6 | 0.00 | 0.00 | 0.00 | 94 | 1019.6 |
| 20260502060455 | 33 | 206 | 1.7 | 2.6 | 0.00 | 0.00 | 0.00 | 93 | 1019.6 |
| 20260502055957 | 33 | 195 | 1.7 | 1.7 | 0.00 | 0.00 | 0.00 | 92 | 1019.3 |
| 20260502055455 | 32 | 178 | 0.9 | 1.7 | 0.00 | 0.00 | 0.00 | 89 | 1019.6 |
| 20260502054955 | 32 | 149 | 0.0 | 0.0 | 0.00 | 0.00 | 0.00 | 87 | 1019.3 |
| 20260502054455 | 32 | 149 | 0.0 | 0.0 | 0.00 | 0.00 | 0.00 | 86 | 1019.3 |
| 20260502053957 | 32 | 134 | 0.0 | 0.0 | 0.00 | 0.00 | 0.00 | 87 | 1019.3 |
| 20260502053455 | 32 | 133 | 0.0 | 0.0 | 0.00 | 0.00 | 0.00 | 87 | 1019.3 |
| 20260502052956 | 32 | 125 | 0.0 | 0.0 | 0.00 | 0.00 | 0.00 | 87 | 1019.3 |
| 20260502052456 | 32 | 122 | 0.0 | 1.7 | 0.00 | 0.00 | 0.00 | 88 | 1019.3 |
| 20260502051955 | 32 | 132 | 0.0 | 0.0 | 0.00 | 0.00 | 0.00 | 87 | 1019.3 |